www.pogodaiklimat.ru

Погода и климат >> Архив погоды >> Словакия >> Жьяр-над-Гроном


ПОГОДА в Жьяр-над-Гроном

  • Прогноз погоды в Жьяр-над-Гроном
  • Монитор погоды в Жьяр-над-Гроном

АРХИВ ПОГОДЫ в Жьяр-над-Гроном

Время (UTC), дата Ветер
(напр.,м/с)
 
Видим.   Явления Облачность Т
(С)
Тd
(С)
f
(%)
Тe
(С)
Тes
(С)
Комфортность P
(гПа)
Po
(гПа)
Тmin
(С)
Tmax
(С)
R
(мм)
R24
(мм)
S
(см)
22 15.09 Ю 1 20 км н/о +9.8 +9.8 100 +9 +9 1022.7 989.4
23 15.09 штиль 0 17 км н/о +9.1 +9.1 100 +8 +8 1022.8 989.4
00 16.09 штиль 0 19 км н/о +8.7 +8.7 100 +8 +8 1022.0 988.6
01 16.09 СВ 1 20 км н/о +8.8 +8.8 100 +8 +8 1021.7 988.3
02 16.09 штиль 0 19 км н/о +8.4 +8.4 100 +7 +7 1021.3 987.9
03 16.09 штиль 0 16 км н/о +8.2 +8.2 100 +7 +7 1021.1 987.7
04 16.09 штиль 0 14 км н/о +7.9 +7.9 100 +7 +7 1020.9 987.4
05 16.09 штиль 0 5000 м н/о +7.7 +7.7 100 +7 +7 1021.0 987.5
06 16.09 штиль 0 6000 м дымка н/о +9.9 +9.9 100 +9 +9 1020.7 987.5 +7.4
07 16.09 штиль 0 20 км н/о +13.5 +11.7 89 +13 +13 1020.0 987.3
08 16.09 В 1 20 км н/о +16.1 +13.3 83 +17 +17 1019.4 987.0
09 16.09 СЗ 1 20 км н/о +19.8 +13.9 69 +23 +23 комфорт 1018.3 986.3
10 16.09 С 1 20 км н/о +22.9 +15.5 63 +27 +27 душно 1017.4 985.8
11 16.09 н/о н/о
12 16.09 н/о
13 16.09 СЗ 2 20 км н/о +25.6 +11.9 42 +27 +27 жарко 1015.4 984.1
14 16.09 СЗ 2 20 км н/о +23.1 +12.4 51 +26 +26 жарко 1015.3 983.8
15 16.09 СЗ 2 20 км н/о +23.2 +13.8 55 +27 +27 душно 1015.2 983.7
16 16.09 СЗ 2 20 км н/о +21.2 +11.7 55 +23 +23 комфорт 1015.3 983.5
17 16.09 штиль 0 20 км н/о +19.2 +13.3 69 +20 +20 1015.5 983.5
18 16.09 В 1 20 км н/о +17.5 +13.3 76 +19 +19 1015.2 983.1 +25.7
19 16.09 Ю 1 18 км н/о +16.4 +14.2 87 +17 +17 1015.7 983.4
20 16.09 штиль 0 20 км н/о +15.5 +13.5 88 +15 +15 1015.8 983.4
21 16.09 штиль 0 20 км н/о +14.9 +13.6 92 +15 +15 1016.0 983.6
22 16.09 В 1 20 км н/о +14.4 +13.4 94 +15 +15 1015.9 983.4
23 16.09 В 1 20 км н/о +14.4 +13.4 94 +15 +15 1015.5 983.0
00 17.09 штиль 0 20 км н/о +13.8 +13.7 99 +13 +13 1015.0 982.5
01 17.09 СЗ 1 20 км н/о +13.5 +13.5 100 +14 +14 1015.3 982.7
02 17.09 ЮВ 1 20 км н/о +13.4 +13.4 100 +13 +13 1014.8 982.2
03 17.09 штиль 0 19 км н/о +13.6 +13.6 100 +13 +13 1014.3 981.8
04 17.09 Ю 1 19 км н/о +13.7 +13.7 100 +14 +14 1014.3 981.8
05 17.09 СЗ 3 20 км н/о +15.7 +13.9 89 +15 +15 1014.2 981.9
06 17.09 штиль 0 20 км н/о +16.5 +13.9 85 +16 +16 1014.1 981.9 +13.4
07 17.09 штиль 0 20 км н/о +17.0 +13.6 80 +17 +17 1014.2 982.1
08 17.09 ЮЗ 2 20 км н/о +17.0 +14.2 84 +17 +17 1014.7 982.5
09 17.09 СЗ 2 20 км н/о +18.0 +12.8 72 +19 +19 1014.4 982.3
10 17.09 СЗ 3 20 км н/о +19.2 +12.4 65 +21 +21 комфорт 1013.9 982.0
11 17.09 СЗ 4 20 км н/о +21.7 +11.9 54 +24 +24 комфорт 1013.4 981.8
12 17.09 СЗ 4 20 км н/о +22.0 +11.4 51 +24 +24 комфорт 1013.1 981.5
13 17.09 З 4 20 км н/о +21.3 +11.1 52 +23 +23 комфорт 1012.9 981.2
14 17.09 З 3 20 км н/о +18.2 +10.3 60 +19 +19 1012.7 980.7
15 17.09 ЮЗ 2 20 км н/о +17.5 +11.2 67 +18 +18 1012.5 980.4
16 17.09 З 2 20 км н/о +17.7 +11.6 67 +18 +18 1011.8 979.8
17 17.09 З 2 20 км н/о +16.8 +9.2 61 +17 +17 1012.2 980.0
18 17.09 СЗ 3 20 км н/о +16.3 +9.3 63 +16 +16 1013.1 980.9 +22.0
19 17.09 С 3 20 км н/о +15.5 +8.9 65 +15 +15 1013.5 981.2
20 17.09 СЗ 1 20 км н/о +14.7 +9.3 70 +15 +15 1013.9 981.5
21 17.09 С 1 20 км н/о +14.6 +7.9 64 +15 +15 1013.8 981.3
22 17.09 СЗ 1 20 км н/о +14.7 +6.0 56 +15 +15 1014.4 981.9
23 17.09 З 2 20 км н/о +14.1 +4.1 51 +14 +14 1015.0 982.4
00 18.09 СЗ 2 20 км н/о +13.2 +3.3 51 +13 +13 1015.7 983.0
01 18.09 З 1 20 км н/о +12.1 +3.6 56 +12 +12 1016.3 983.4
02 18.09 СЗ 4 20 км н/о +11.5 +2.5 54 +10 +10 1017.1 984.1
03 18.09 З 2 20 км н/о +10.3 +1.5 54 +9 +9 1018.0 984.9
04 18.09 З 4 16 км н/о +9.8 +1.5 56 +7 +7 1018.8 985.6
05 18.09 штиль 0 14 км н/о +9.8 +1.9 58 +9 +9 1019.6 986.4
06 18.09 СЗ 2 19 км н/о +11.0 +2.5 56 +10 +10 1020.3 987.2 +9.5
07 18.09 СЗ 3 20 км н/о +12.8 +2.6 50 +12 +12 1020.8 987.9
08 18.09 СЗ 4 20 км н/о +13.4 +2.0 46 +12 +12 1021.5 988.6
09 18.09 С 2 20 км н/о +14.4 +1.7 42 +14 +14 1021.6 988.8
10 18.09 СЗ 3 20 км н/о +14.9 +2.4 43 +14 +14 1021.9 989.2
11 18.09 СЗ 1 20 км н/о +16.1 +3.0 41 +17 +17 1022.0 989.4
12 18.09 СЗ 1 20 км н/о +16.7 +3.1 40 +18 +18 1021.7 989.2
13 18.09 СЗ 3 20 км н/о +16.2 +2.0 38 +16 +16 1021.5 988.9
14 18.09 СЗ 3 20 км н/о +16.9 +2.0 37 +17 +17 1021.2 988.7
15 18.09 СЗ 3 20 км н/о +15.9 0.0 34 +16 +16 1021.3 988.7
16 18.09 СЗ 1 20 км н/о +14.8 +1.7 41 +16 +16 1021.5 988.8
17 18.09 С 1 12 км н/о +10.9 +1.8 53 +11 +11 1022.3 989.1
18 18.09 З 1 8000 м н/о +8.8 +3.9 71 +8 +8 1023.4 989.9 +17.4
19 18.09 штиль 0 18 км н/о +7.6 +3.7 76 +7 +7 1023.9 990.3
20 18.09 СВ 1 20 км н/о +6.2 +3.8 85 +5 +5 1024.4 990.6
21 18.09 СВ 1 20 км н/о +6.2 +3.0 80 +5 +5 1024.8 991.0
22 18.09 штиль 0 20 км н/о +4.2 +3.3 94 +3 +3 1025.2 991.1
23 18.09 штиль 0 20 км н/о +4.0 +3.2 95 +3 +3 1025.4 991.3
00 19.09 З 1 20 км н/о +2.9 +2.8 99 +1 +1 1025.3 991.1
01 19.09 СЗ 1 20 км н/о +2.6 +2.6 100 +1 +1 1025.5 991.2
02 19.09 штиль 0 20 км н/о +2.4 +2.4 100 +1 +1 1025.3 991.0
03 19.09 штиль 0 19 км н/о +1.8 +1.8 100 0 0 1025.3 990.9
04 19.09 С 1 15 км н/о +1.5 +1.5 100 -1 -1 1025.8 991.4
05 19.09 В 1 20 км н/о +2.0 +2.0 100 0 0 1026.0 991.6
06 19.09 ЮВ 1 19 км н/о +4.6 +4.0 96 +3 +3 1026.1 992.0 +1.4
07 19.09 З 1 20 км н/о +8.4 +5.3 81 +8 +8 1026.0 992.4
08 19.09 Ю 1 20 км н/о +11.6 +6.6 71 +12 +12 1025.5 992.3
09 19.09 ЮЗ 2 20 км н/о +12.8 +6.4 65 +12 +12 1025.3 992.3
10 19.09 В 1 20 км н/о +15.9 +3.7 44 +17 +17 1024.7 992.0
11 19.09 З 1 20 км н/о +13.7 +3.3 49 +14 +14 1025.0 992.0
12 19.09 СЗ 1 20 км н/о +16.4 +2.0 38 +17 +17 1024.3 991.7
13 19.09 С 1 20 км н/о +16.0 +1.8 38 +17 +17 1024.3 991.6
14 19.09 штиль 0 20 км н/о +13.9 +3.2 48 +14 +14 1024.7 991.8
15 19.09 С 3 20 км н/о +12.8 +2.4 49 +12 +12 1025.1 992.0
16 19.09 СЗ 2 20 км н/о +12.5 +2.0 49 +12 +12 1025.2 992.1
17 19.09 штиль 0 20 км н/о +10.4 +2.6 58 +10 +10 1026.0 992.6
18 19.09 штиль 0 20 км н/о +8.4 +3.5 71 +8 +8 1026.8 993.2 +16.6
19 19.09 СВ 1 20 км н/о +7.1 +4.1 81 +6 +6 1027.5 993.7
20 19.09 Ю 1 19 км н/о +5.4 +4.4 93 +4 +4 1028.1 994.1
21 19.09 штиль 0 19 км н/о +5.1 +4.4 95 +4 +4 1028.4 994.3
22 19.09 ЮВ 1 19 км н/о +4.7 +4.5 99 +3 +3 1028.4 994.3
23 19.09 штиль 0 19 км н/о +5.0 +4.5 97 +4 +4 1028.5 994.4
00 20.09 штиль 0 20 км н/о +4.2 +4.1 99 +3 +3 1028.7 994.5
01 20.09 СВ 1 20 км н/о +3.5 +3.5 100 +2 +2 1028.7 994.4
02 20.09 В 1 20 км н/о +2.8 +2.8 100 +1 +1 1028.6 994.2
03 20.09 штиль 0 20 км н/о +2.9 +2.9 100 +2 +2 1028.7 994.3
04 20.09 штиль 0 19 км н/о +2.2 +2.2 100 +1 +1 1028.7 994.3
05 20.09 штиль 0 20 км н/о +2.4 +2.4 100 +1 +1 1029.0 994.6
06 20.09 Ю 1 19 км н/о +4.5 +3.8 95 +3 +3 1029.1 994.9 +2.0
07 20.09 ЮВ 1 20 км н/о +6.8 +5.0 88 +6 +6 1029.3 995.4
08 20.09 ЮЗ 1 19 км н/о +9.9 +6.0 77 +10 +10 1029.2 995.7
09 20.09 ЮЗ 2 20 км н/о +13.6 +6.8 63 +13 +13 1028.2 995.2
10 20.09 С 2 20 км н/о +15.8 +3.8 45 +16 +16 1027.5 994.7
11 20.09 С 3 20 км н/о +16.8 +3.7 42 +17 +17 1027.0 994.3
12 20.09 С 1 20 км н/о +16.7 +1.9 37 +18 +18 1026.8 994.1
13 20.09 С 1 20 км н/о +16.9 +1.6 36 +18 +18 1026.4 993.7
14 20.09 С 1 20 км н/о +17.3 +2.0 36 +18 +18 1026.0 993.4
15 20.09 С 1 20 км н/о +15.8 +2.9 42 +17 +17 1026.1 993.3
16 20.09 СЗ 1 20 км н/о +14.1 +4.1 51 +15 +15 1026.5 993.5
17 20.09 С 1 15 км н/о +11.0 +5.9 71 +11 +11 1027.0 993.7
18 20.09 Ю 1 20 км н/о +10.1 +6.7 79 +10 +10 1027.7 994.3 +17.4
19 20.09 В 1 19 км н/о +9.8 +6.2 78 +9 +9 1028.1 994.6
20 20.09 СВ 1 20 км н/о +8.1 +6.4 89 +7 +7 1028.9 995.2
21 20.09 ЮВ 1 20 км н/о +6.1 +5.3 95 +5 +5 1029.1 995.1
22 20.09 штиль 0 20 км н/о +5.8 +5.5 98 +5 +5 1029.1 995.1
23 20.09 СВ 1 20 км н/о +5.0 +4.5 97 +4 +4 1029.5 995.4
00 21.09 В 1 20 км н/о +4.1 +4.1 100 +2 +2 1029.3 995.1
01 21.09 штиль 0 20 км н/о +3.4 +3.4 100 +2 +2 1029.4 995.1
02 21.09 штиль 0 20 км н/о +2.8 +2.8 100 +1 +1 1029.4 995.0
03 21.09 СВ 1 20 км н/о +2.8 +2.8 100 +1 +1 1029.5 995.1
04 21.09 СВ 1 20 км н/о +2.4 +2.4 100 0 0 1029.6 995.1
05 21.09 ЮВ 1 20 км н/о +2.1 +2.1 100 0 0 1029.9 995.4
06 21.09 В 1 20 км н/о +4.5 +3.8 95 +3 +3 1029.8 995.6 +2.1
07 21.09 Ю 1 20 км н/о +7.9 +5.5 85 +7 +7 1029.4 995.6
08 21.09 штиль 0 20 км н/о +11.2 +5.5 68 +11 +11 1028.9 995.5
09 21.09 Ю 1 20 км н/о +14.5 +6.6 59 +15 +15 1028.0 995.1
10 21.09 ЮЗ 2 20 км н/о +16.9 +3.0 39 +17 +17 1027.2 994.5
11 21.09 З 3 20 км н/о +18.3 +4.3 40 +19 +19 1026.4 993.9
12 21.09 З 2 20 км н/о +19.3 +4.1 37 +20 +20 1025.8 993.4
13 21.09 ЮЗ 2 20 км н/о +19.3 +4.9 39 +20 +20 1025.3 993.0
14 21.09 ЮЗ 3 20 км н/о +18.8 +3.8 37 +19 +19 1024.9 992.5
15 21.09 ЮЗ 2 20 км н/о +18.4 +4.6 40 +19 +19 1024.3 991.9
16 21.09 З 1 20 км н/о +17.2 +4.9 44 +18 +18 1024.3 991.8
17 21.09 СВ 1 20 км н/о +13.6 +6.5 62 +14 +14 1024.7 991.8
18 21.09 штиль 0 20 км н/о +10.8 +7.1 78 +10 +10 1025.5 992.2 +19.7
19 21.09 штиль 0 20 км н/о +8.5 +7.0 90 +8 +8 1025.9 992.3
20 21.09 штиль 0 20 км н/о +7.7 +6.4 91 +7 +7 1025.9 992.2
21 21.09 штиль 0 20 км н/о +6.7 +6.0 95 +6 +6 1026.0 992.2
22 21.09 штиль 0 20 км н/о +5.8 +5.7 99 +5 +5 1025.7 991.8
23 21.09 штиль 0 20 км н/о +5.2 +5.2 100 +4 +4 1025.9 991.9
00 22.09 штиль 0 20 км н/о +4.4 +4.4 100 +3 +3 1025.9 991.8
01 22.09 штиль 0 20 км н/о +3.8 +3.8 100 +3 +3 1025.4 991.3
02 22.09 штиль 0 20 км н/о +3.3 +3.3 100 +2 +2 1025.2 991.0
03 22.09 штиль 0 20 км н/о +3.3 +3.3 100 +2 +2 1024.9 990.7
04 22.09 СВ 1 20 км н/о +2.9 +2.9 100 +1 +1 1024.7 990.5
05 22.09 штиль 0 17 км н/о +2.3 +2.3 100 +1 +1 1024.8 990.5
06 22.09 Ю 1 19 км н/о +5.3 +5.3 100 +4 +4 1024.2 990.3 +2.2
07 22.09 Ю 1 20 км н/о +9.2 +7.2 87 +9 +9 1023.8 990.4
08 22.09 ЮВ 1 20 км н/о +13.3 +7.4 67 +14 +14 1022.7 989.8
09 22.09 В 3 20 км н/о +15.9 +5.6 50 +16 +16 1021.5 988.9
10 22.09 В 3 20 км н/о +17.5 +4.8 43 +18 +18 1020.4 988.0
11 22.09 ЮВ 2 20 км н/о +19.8 +4.5 36 +21 +21 комфорт 1019.0 986.9
12 22.09 ЮВ 2 19 км н/о +20.5 +3.7 33 +22 +22 комфорт 1018.3 986.3
13 22.09 Ю 2 20 км н/о +20.2 +4.9 37 +21 +21 комфорт 1017.6 985.6
14 22.09 ЮВ 5 20 км н/о +20.0 +4.2 35 +20 +20 1017.0 985.0
15 22.09 ЮВ 3 20 км н/о +19.3 +4.4 37 +20 +20 1016.7 984.6
16 22.09 В 2 20 км н/о +17.8 +4.0 40 +18 +18 1016.7 984.5
17 22.09 В 1 16 км н/о +13.7 +6.6 62 +14 +14 1017.1 984.4
18 22.09 СВ 1 20 км н/о +11.6 +7.0 73 +12 +12 1017.5 984.6 +20.7
19 22.09 штиль 0 20 км н/о +10.1 +7.0 81 +9 +9 1017.8 984.7
20 22.09 СЗ 1 20 км н/о +9.2 +7.3 88 +9 +9 1017.5 984.3
21 22.09 штиль 0 20 км н/о +8.5 +7.1 91 +8 +8 1017.3 984.0

 

Местоположение метеостанции Жьяр-над-Гроном (Словакия): широта 48.58 долгота 18.85 высота над уровнем моря 276 м.

В архиве по умолчанию представлена погода в Жьяр-над-Гроном за последнюю неделю. Архивные данные за месяц целиком и за предыдущие месяцы, начиная с января 2011 года, Вы можете получить, выбрав интересующий диапазон дат из раскрывающегося списка и нажав кнопку "Ввод!".


*Определитесь, кто Вы:
робот инопланетянин человек

Внимание! Время в таблицах - всемирное. Для получения местного времени необходимо прибавить поправку, которая равна 1 ч.

Смотрите также архив погоды в соседних городах и на ближайших метеорологических станциях:

Погода в Слиаче (Словакия) (23 км)
Погода в Прьевидзе (Словакия) (28 км)
Погода в Моховце (Словакия) (45 км)
Погода в Дудинце (Словакия) (46 км)
Погода в Нитре (Словакия) (63 км)
Погода в Лученце (Словакия) (71 км)
Погода на Хопке (Словакия) (71 км)
Погода в Сечене (Польша) (71 км)
Погода в Жилине (Словакия) (74 км)
Погода в Пьештяни (Словакия) (75 км)

Пояснения к столбцам:

Ветер - указаны скорость ветра в м/с - средняя за 10 мин, порывы в срок и между сроками (в фигурных скобках) и направление, откуда дует ветер: С - северный, СВ - северо-восточный, В - восточный, ЮВ - юго-восточный, Ю - южный, ЮЗ - юго-западный, З - западный, СЗ - северо-западный.
Видимость - горизонтальная дальность видимости в метрах или километрах. При видимости от 1 до 10 км при отсутствии осадков обычно наблюдается дымка, при ухудшении видимости до 1 км и менее - туман. В сухую погоду видимость может ухудшаться дымом, пылью или мглою.
Явления - указаны атмосферные явления, наблюдавшиеся в срок или в последний час перед сроком; фигурными скобками обозначены явления, наблюдавшиеся между сроками (за 1-3 часа до срока); квадратными скобками обозначены град или гололедные отложения с указанием их диаметра в мм.
Облачность - указаны через наклонную черту общая и нижняя облачность в баллах и высота нижней границы облаков в метрах; квадратными скобками обозначены формы облаков: Ci - перистые, Cs - перисто-слоистые, Cc - перисто-кучевые, Ac - высококучевые, As - высокослоистые, Sc - слоисто-кучевые, Ns - слоисто-дождевые, Cu - кучевые, Cb - кучево-дождевые. Подробнее классификацию облаков см. в Атласе облаков (PDF).
T - Температура воздуха - температура, измеренная на высоте 2 м над землей.
Td - Температура точки росы - температура, при понижении до которой содержащийся в воздухе водяной пар достигнет насыщения.
f - Относительная влажность воздуха - влажноcть воздуха, измеренная на высоте 2 м над землей.
Te - Эффективная температура - температура, которую ощущает одетый по сезону человек в тени. Характеристика душности погоды. При расчете учитывается влияние влажности воздуха и скорости ветра на теплоощущения человека.
Tes - Эффективная температура на солнце - температура, которую ощущает человек, с поправкой на солнечный нагрев. Характеристика знойности погоды. Зависит от высоты солнца над горизонтом, облачности и скорости ветра. Ночью, в пасмурную погоду, а также при ветре 12 м/с и более поправка равна нулю.
P - Атмосферное давление - приведенное к уровню моря атмосферное давление.
Po - Атмосферное давление - измеренное на уровне метеостанции атмосферное давление.
Tmin - Минимальная температура - минимум температуры воздуха на высоте 2 м над землей.
Tmax - Максимальная температура - максимум температуры воздуха на высоте 2 м над землей.
R - Количество осадков - Количество выпавших осадков за период времени, мм. При наведении курсора мыши на число - период времени, за который выпало указанное количество осадков.
R24 - Количество осадков - Количество выпавших осадков за 24 часа, мм.
S - Снежный покров - Высота снежного покрова, см. При наведении курсора мыши на число - состояние снежного покрова и степень покрытия местности в баллах.